Regional Weather Roundup
Issued by NWS Cleveland, OH

Home | Current Version | Previous Version | Graphics & Text | Print | Product List | Glossary On
Versions: 1 2 3 4 5 6 7 8 9 10 11 12 13 14 15 16 17 18 19 20 21 22 23 24 25 26 27 28 29 30 31 32 33 34 35 36 37 38 39 40 41 42 43 44 45 46 47 48 49 50
000
ASUS41 KCLE 311510
RWRCLE
OHIO REGIONAL WEATHER ROUNDUP
NATIONAL WEATHER SERVICE CLEVELAND, OH
1100 AM EDT MON AUG 31 2015

NOTE: "FAIR" INDICATES FEW OR NO CLOUDS BELOW 12,000 FEET WITH NO
SIGNIFICANT WEATHER AND/OR OBSTRUCTIONS TO VISIBILITY.

OHZ001>008-015>018-024>027-034-035-043-044-311600-
   NORTHWEST OHIO

CITY           SKY/WX    TMP DP  RH WIND       PRES   REMARKS
DEFIANCE       SUNNY     74  69  85 SW3       30.12R
FINDLAY        SUNNY     78  70  76 VRB3      30.11R
TOLEDO EXPRESS SUNNY     77  69  76 VRB3      30.11R
TOLEDO EXEC    SUNNY     78  68  71 SW3       30.12R
LIMA           SUNNY     78  69  73 SW6       30.13R
$$

OHZ009>014-019>023-028>033-038-089-311600-
   NORTHEAST OHIO

CITY           SKY/WX    TMP DP  RH WIND       PRES   REMARKS
CLE-HOPKINS    MOSUNNY   77  68  73 SW3       30.13R
CLE-LAKEFRONT  SUNNY     76  67  73 NW8       30.10R
CUY CO. ARPT   NOT AVBL
LORAIN-ELYRIA  SUNNY     78  69  73 NW5       30.12R
ASHTABULA      SUNNY     77  70  79 W8        30.12R
AKRON-CANTON   MOSUNNY   78  67  68 CALM      30.13R
WOOSTER        SUNNY     78  68  71 NW3       30.14R
MANSFIELD      SUNNY     78  68  71 W8        30.14S
YOUNGSTOWN     MOSUNNY   78  68  71 SW6       30.12R
$$

OHZ042-051>053-060>062-070>072-077>081-311600-
  SOUTHWEST OHIO

CITY           SKY/WX    TMP DP  RH WIND       PRES   REMARKS
CINC-COVINGTON MOSUNNY   79  68  69 W8        30.16R
CINC-LUNKEN    SUNNY     79  70  74 SW6       30.15R
HAMILTON       SUNNY     78  70  76 VRB5      30.15S
DAYTON         MOSUNNY   78  70  76 W5        30.15S
WRIGHT-PAT AFB MOSUNNY   77  70  79 W5        30.14R
DAYTON GENERAL SUNNY     77  68  73 SW6       30.14S
WILMINGTON     SUNNY     79  69  71 NW5       30.15R
$$

OHZ036-037-039>041-045>050-054>059-063>069-073>076-082>088-311600-
  CENTRAL AND SOUTHEAST OHIO

CITY           SKY/WX    TMP DP  RH WIND       PRES   REMARKS
COLUMBUS       MOSUNNY   79  68  69 NW3       30.13S
OSU AIRPORT    SUNNY     79  68  69 W6        30.14R
BOLTON FIELD   SUNNY     79  72  78 W3        30.15R
RICKENBACK AFB SUNNY     76  68  74 NW3       30.14R
NEWARK         SUNNY     80  70  71 VRB3      30.14R
MARION         SUNNY     78  68  71 CALM      30.14R
LANCASTER      SUNNY     79  67  66 CALM      30.15R
ZANESVILLE     SUNNY     81  66  60 VRB3      30.14S
NEW PHILLY     SUNNY     78  69  73 CALM      30.14R
$$


USA.gov is the U.S. government's official web portal to all federal, state and local government web resources and services.